Location: Chervonnoye
(48.6000°N, 34.4000°E)
Time: 15:11:47
(UTC+00:00)

Cosmos 1500 Rocket - Pass Details

Date: 23 November 2020
Orbit: 603 x 631 km, 82.5° (Epoch: 27 January)

Event Time Altitude Azimuth Distance (km) Brightness Sun altitude
Rises 14:32:16 0° 354° (N) 2,891 6.8 -6.4°
Reaches altitude 10° 14:34:33 10° 359° (N) 1,985 5.9 -6.7°
Maximum altitude 14:38:52 54° 77° (ENE) 752 3.7 -7.4°
Drops below altitude 10° 14:43:11 10° 155° (SSE) 1,987 6.1 -8.0°
Sets 14:45:27 0° 160° (SSE) 2,893 7.0 -8.4°
